GEFSMA_con_prob3kmehi_168.txt.gz
EHI
12 11 7 4 2 2 2 1 2 3 3 3 2 2 2 2 1 1 1 0 0 0 0 0 0 0 0 0 0 0 0 0 0 0 0 0 0 0 0 0 0 0 0
18 15 10 5 3 3 3 2 1 2 2 3 3 3 3 2 1 1 2 1 0 0 0 0 0 0 0 0 0 0 0 0 0 0 0 0 0 0 0 0 0 0 0
25 20 11 7 6 6 5 3 1 1 1 1 2 3 2 1 1 2 2 1 1 0 0 0 0 0 0 0 0 0 0 0 0 0 0 0 0 0 0 0 0 0 0
26 21 12 9 9 8 7 4 2 1 0 0 1 1 1 0 0 1 2 3 3 2 1 0 1 1 1 1 0 0 0 0 0 0 0 0 0 0 0 0 0 0 0
27 22 17 17 15 11 9 7 7 5 2 1 1 0 0 1 2 1 1 3 7 7 4 3 3 4 3 3 2 1 1 1 0 0 0 0 0 0 0 0 0 0 0
29 23 22 26 22 15 13 13 14 11 6 2 1 0 0 2 3 3 2 3 7 9 10 9 6 4 4 4 5 5 4 2 1 0 0 0 0 0 0 0 0 0 0
29 23 24 30 27 22 21 20 19 15 9 5 3 1 0 1 3 4 3 2 4 7 11 14 11 8 6 5 6 8 6 4 2 1 0 0 0 0 0 0 0 0 0
33 27 28 32 30 29 29 26 22 16 10 7 7 3 1 0 1 2 3 3 4 5 9 12 16 18 15 8 6 7 7 6 4 3 1 1 1 1 0 0 0 0 0
38 33 31 34 33 32 32 28 23 16 8 8 9 6 3 1 0 0 1 4 7 6 5 7 15 23 23 17 11 7 7 8 7 5 4 4 3 2 1 1 1 0 0
40 37 34 35 35 32 31 29 25 19 11 8 9 9 6 3 1 0 0 3 7 7 4 5 10 17 20 21 18 11 7 7 8 7 8 8 6 4 3 3 2 0 0
43 39 36 38 38 35 32 33 33 26 18 12 10 10 9 6 3 1 0 2 5 6 5 6 8 10 13 17 18 12 6 4 4 5 7 8 8 7 7 5 3 1 0
43 38 36 40 41 40 38 39 38 30 23 19 15 13 12 9 3 1 1 1 3 4 5 7 9 9 9 11 12 9 5 2 1 2 3 5 7 8 8 6 4 2 1
39 38 38 40 42 42 41 41 37 30 26 24 19 16 15 12 6 2 1 1 3 3 4 6 9 10 9 9 9 5 3 1 0 0 1 2 3 4 4 4 3 2 1
35 37 40 39 40 40 39 39 36 30 28 26 21 19 19 14 9 3 2 3 3 2 2 4 8 10 9 9 6 3 1 1 0 0 0 0 0 1 1 1 1 1 0
33 36 37 34 34 37 38 38 35 30 29 27 24 23 21 16 10 5 4 6 5 2 1 4 7 9 9 7 3 1 1 1 0 0 0 0 0 0 0 0 0 0 0
36 35 33 30 30 35 37 36 32 27 24 24 25 25 22 17 12 8 7 9 8 5 3 4 7 9 9 5 1 1 2 1 0 0 0 0 0 0 0 0 0 0 0
37 35 31 26 26 29 30 29 25 21 17 17 20 21 19 17 16 13 11 10 10 7 4 4 6 11 12 8 4 3 3 1 0 0 0 0 0 0 0 0 0 0 0
32 28 23 19 19 20 22 21 17 15 13 13 14 16 15 14 15 15 12 9 8 6 4 3 4 9 13 11 8 6 3 0 0 0 0 0 0 0 0 0 0 0 0
22 19 15 14 14 15 16 15 14 13 14 14 13 14 13 12 13 14 12 9 7 5 5 4 3 4 8 9 9 7 4 1 1 0 0 0 0 0 0 0 0 0 0
14 13 11 11 12 12 10 11 12 12 14 15 14 14 13 12 12 12 10 8 6 5 5 4 3 2 3 5 6 6 4 3 2 1 0 0 0 0 0 0 0 0 0
11 10 9 9 9 8 6 7 9 10 11 12 13 12 11 10 9 7 6 5 4 4 4 4 3 2 1 1 2 3 3 3 2 1 2 1 0 0 0 0 0 0 0
11 10 9 7 7 5 4 3 5 7 7 8 8 7 6 5 4 2 2 1 1 2 2 2 2 2 1 1 1 1 1 1 1 1 2 2 0 0 0 0 0 0 0
10 9 9 8 7 5 2 1 2 4 5 5 4 3 2 1 0 0 0 0 0 1 1 1 1 1 1 2 2 1 0 0 0 0 1 1 0 0 0 0 0 0 0
7 7 8 10 9 4 1 0 0 2 3 2 1 1 0 0 0 0 0 0 0 0 0 0 0 0 1 2 2 1 0 0 0 0 0 0 0 0 0 0 0 0 0
7 6 6 8 6 2 0 0 0 0 1 0 0 0 0 0 0 0 0 0 1 0 0 0 0 0 0 1 1 0 0 0 0 0 0 0 0 0 0 0 0 0 0
8 6 4 4 3 1 0 0 0 0 0 0 0 0 0 0 0 0 0 0 1 0 0 0 0 0 0 0 0 0 0 0 0 0 0 0 0 0 0 0 0 0 0

GEFSMA_con_prob3kmehi_174.txt.gz
EHI
0 0 0 0 0 0 0 0 0 0 0 0 0 0 0 0 0 0 1 2 3 2 1 0 0 0 0 0 0 0 0 0 0 0 0 0 0 0 0 0 0 0 0
1 1 1 0 0 0 0 0 0 0 0 0 0 0 0 0 0 0 0 1 2 2 1 0 0 0 0 0 0 0 0 0 0 0 0 0 0 0 0 0 0 0 0
2 2 1 0 0 0 0 0 0 0 0 0 0 0 0 0 0 0 0 0 1 1 1 1 0 0 0 0 0 0 0 0 0 0 0 0 0 0 0 0 0 0 0
3 2 1 0 0 0 0 0 0 0 0 0 0 0 0 0 0 0 0 0 0 0 0 1 2 2 1 1 1 1 1 0 0 0 0 0 0 0 0 0 0 0 0
3 2 0 0 0 0 0 0 0 0 0 0 0 0 0 0 0 0 0 0 0 0 0 1 2 3 3 3 3 2 2 1 0 0 0 0 0 0 0 0 0 0 0
7 4 1 0 0 0 0 0 0 0 0 0 0 0 0 0 0 0 0 0 0 0 0 0 1 3 4 4 4 3 2 1 0 0 0 0 0 0 0 0 0 0 0
12 10 5 1 0 0 0 0 0 0 0 0 0 0 0 0 0 0 0 0 0 0 0 0 0 1 2 3 4 3 2 1 0 0 0 0 0 0 0 0 0 0 0
16 13 7 3 1 0 0 0 0 0 0 0 0 0 0 0 0 0 0 0 0 0 0 0 0 0 0 1 2 2 1 1 0 0 0 0 0 0 0 0 0 0 0
15 12 7 4 2 0 0 0 0 0 0 0 0 0 0 0 0 0 0 0 0 0 0 0 0 1 1 0 0 1 1 1 1 2 1 1 0 0 0 0 0 0 0
14 12 9 5 2 1 1 1 1 1 0 0 0 0 0 0 0 0 0 0 0 0 0 0 1 2 2 1 0 0 0 1 2 3 3 2 1 1 1 0 0 0 0
14 14 11 7 4 3 3 2 2 2 1 1 1 0 0 0 0 0 0 0 0 0 0 0 1 2 2 1 0 0 0 1 2 4 4 5 4 2 1 0 0 0 0
14 14 12 10 6 4 4 3 3 3 3 2 2 1 0 0 0 0 0 0 0 0 0 0 0 1 1 0 0 0 0 0 1 1 3 5 5 2 1 0 0 0 0
14 14 14 12 8 5 4 3 3 3 3 3 3 2 1 0 0 0 0 0 0 0 0 0 0 0 0 0 0 0 0 0 0 0 1 2 2 1 0 0 0 0 0
12 13 14 12 9 6 4 4 3 3 3 3 3 3 2 1 0 0 0 0 0 0 0 0 0 0 0 0 0 0 0 0 0 0 0 0 0 0 0 0 0 0 0
7 8 10 9 7 5 4 3 3 3 3 3 3 3 3 2 1 1 0 0 0 0 0 0 0 0 0 0 0 0 0 0 0 0 0 0 0 0 0 0 0 0 0
2 3 4 5 4 3 3 3 3 2 2 2 2 2 2 2 2 1 0 0 0 0 0 0 0 0 0 0 0 0 0 0 0 0 0 0 0 0 0 0 0 0 0
1 2 2 3 3 3 3 3 2 1 1 1 1 1 1 1 1 1 0 0 0 0 0 0 0 0 0 0 0 0 0 0 0 0 0 0 0 0 0 0 0 0 0
2 2 1 2 2 3 3 3 2 1 1 1 1 0 0 0 0 0 0 0 0 0 0 0 0 0 0 0 0 0 0 0 0 0 0 0 0 0 0 0 0 0 0
2 2 1 1 1 1 2 2 2 2 2 2 2 1 0 0 0 0 0 0 0 0 0 0 0 0 0 0 0 0 0 0 0 0 0 0 0 0 0 0 0 0 0
4 3 2 1 0 0 1 1 1 2 2 2 2 1 0 0 0 0 0 0 0 0 0 0 0 0 0 0 0 0 0 0 0 0 0 0 0 0 0 0 0 0 0
6 4 3 2 1 0 0 0 0 1 1 1 1 0 0 0 0 0 0 0 0 0 0 0 0 0 0 0 0 0 0 0 0 0 0 0 0 0 0 0 0 0 0
6 5 3 2 1 0 0 0 0 0 0 0 0 0 0 0 0 0 0 0 0 0 0 0 0 0 0 0 0 0 0 0 0 0 0 0 0 0 0 0 0 0 0
5 3 2 1 1 0 0 0 0 0 0 0 0 0 0 0 0 0 0 0 0 0 0 0 0 0 0 0 0 0 0 0 0 0 0 0 0 0 0 0 0 0 0
3 2 1 1 0 0 0 0 0 0 0 0 0 0 0 0 0 0 0 0 0 0 0 0 0 0 0 0 0 0 0 0 0 0 0 0 0 0 0 0 0 0 0
2 1 1 1 0 0 0 0 0 0 0 0 0 0 0 0 0 0 0 0 0 0 0 0 0 0 0 0 0 0 0 0 0 0 0 0 0 0 0 0 0 0 0
1 0 0 0 0 0 0 0 0 0 0 0 0 0 0 0 0 0 0 0 0 0 0 0 0 0 0 0 0 0 0 0 0 0 0 0 0 0 0 0 0 0 0

GEFSMA_con_prob3kmehi_180.txt.gz
EHI
0 0 0 0 0 0 0 0 0 0 0 0 0 0 0 0 0 0 0 0 0 0 0 0 0 0 0 0 0 0 0 0 0 0 0 0 0 0 0 0 0 0 0
0 0 0 0 0 0 0 0 0 0 0 0 0 0 0 0 0 0 0 0 0 0 0 0 0 0 0 0 0 0 0 0 0 0 0 0 0 0 0 0 0 0 0
0 0 0 0 0 0 0 0 0 0 0 0 0 0 0 0 0 0 0 0 0 0 0 0 0 0 0 0 0 0 0 0 0 0 0 0 0 0 0 0 0 0 0
0 0 0 0 0 0 0 0 0 0 0 0 0 0 0 0 0 0 0 0 0 0 0 0 0 0 0 0 0 0 0 0 0 0 0 0 0 0 0 0 0 0 0
0 0 0 0 0 0 0 0 0 0 0 0 0 0 0 0 0 0 0 0 0 0 0 0 0 0 0 0 0 0 0 0 0 0 0 0 0 0 0 0 0 0 0
0 0 0 0 0 0 0 0 0 0 0 0 0 0 0 0 0 0 0 0 0 0 0 0 0 0 0 0 0 0 0 0 0 0 0 0 0 0 0 0 0 0 0
1 1 0 0 0 0 0 0 0 0 0 0 0 0 0 0 0 0 0 0 0 0 0 0 0 0 0 0 0 0 0 0 0 0 0 0 0 0 0 0 0 0 0
2 1 1 1 0 0 0 0 0 0 0 0 0 0 0 0 0 0 0 0 0 0 0 0 0 0 0 0 0 0 0 0 0 0 0 0 0 0 0 0 0 0 0
2 2 2 2 1 0 0 0 0 0 0 0 0 0 0 0 0 0 0 0 0 0 0 0 0 0 0 0 0 0 0 0 1 0 0 0 0 0 0 0 0 0 0
4 3 2 2 1 0 0 0 0 0 0 0 0 0 0 0 0 0 0 0 0 0 0 0 0 0 0 0 0 0 0 0 0 0 0 0 0 0 0 0 0 0 0
5 4 3 2 1 0 0 0 0 0 0 0 0 0 0 0 0 0 0 0 0 0 0 0 0 0 0 0 0 0 0 0 0 0 0 0 0 0 1 0 0 0 0
3 3 2 2 1 0 0 0 0 0 0 1 1 1 1 0 0 0 0 0 0 0 0 0 0 0 0 0 0 0 0 0 0 0 0 0 0 1 2 1 0 0 0
1 2 1 1 1 0 0 0 0 0 0 1 2 2 2 1 1 0 0 0 0 0 0 0 0 0 0 0 0 0 0 0 0 0 0 0 0 0 1 0 0 0 0
0 0 0 0 0 0 0 0 0 0 0 1 1 2 2 2 2 1 0 0 0 0 0 0 0 0 0 0 0 0 0 0 0 0 0 0 0 0 0 0 0 0 0
0 0 0 0 0 1 1 1 0 0 0 0 0 1 1 1 2 2 1 0 0 0 0 0 0 0 0 0 0 0 0 0 0 0 0 0 0 0 0 0 0 0 0
0 0 0 0 0 1 2 2 1 0 0 0 0 0 0 0 1 2 1 0 0 0 0 0 0 0 0 0 0 0 0 0 0 0 0 0 0 0 0 0 0 0 0
0 0 0 0 0 1 3 3 1 1 1 0 0 0 0 0 0 1 1 0 0 0 0 0 0 0 0 0 0 0 0 0 0 0 0 0 0 0 0 0 0 0 0
1 1 1 1 0 1 2 3 3 2 2 1 1 1 0 0 0 0 0 0 0 0 0 0 0 0 0 0 0 0 0 0 0 0 0 0 0 0 0 0 0 0 0
3 3 3 2 1 0 1 2 2 2 2 2 2 1 0 0 0 0 0 0 0 0 0 0 0 0 0 0 0 0 0 0 0 0 0 0 0 0 0 0 0 0 0
6 6 5 4 2 1 0 1 1 1 1 1 1 1 0 0 0 0 0 0 0 0 0 0 0 0 0 0 0 0 0 0 0 0 0 0 0 0 0 0 0 0 0
6 6 6 5 3 1 0 0 0 0 0 0 0 0 0 0 0 0 0 0 0 0 0 0 0 0 0 0 0 0 0 0 0 0 0 0 0 0 0 0 0 0 0
6 6 6 6 4 1 0 0 0 0 0 0 0 0 0 0 0 0 0 0 0 0 0 0 0 0 0 0 0 0 0 0 0 0 0 0 0 0 0 0 0 0 0
5 6 6 6 4 1 0 0 0 0 0 0 0 0 0 0 0 0 0 0 0 0 0 0 0 0 0 0 0 0 0 0 0 0 0 0 0 0 0 0 0 0 0
5 5 5 4 3 1 0 0 0 0 0 0 0 0 0 0 0 0 0 0 0 0 0 0 0 0 0 0 0 0 0 0 0 0 0 0 0 0 0 0 0 0 0
4 4 4 3 3 2 1 0 0 0 0 0 0 0 0 0 0 0 0 0 0 0 0 0 0 0 0 0 0 0 0 0 0 0 0 0 0 0 0 0 0 0 0
3 3 3 3 3 2 1 0 0 0 0 0 0 0 0 0 0 0 0 0 0 0 0 0 0 0 0 0 0 0 0 0 0 0 0 0 0 0 0 0 0 0 0

GEFSMA_con_prob3kmehi_186.txt.gz
EHI
0 0 0 0 0 0 0 0 0 0 0 0 0 0 0 0 0 0 1 1 1 0 0 0 0 0 0 0 0 0 0 0 0 0 0 0 0 0 0 0 0 0 0
0 0 0 0 0 0 0 0 0 0 0 0 0 0 0 0 0 0 0 0 0 1 1 0 0 0 0 0 0 0 0 0 0 0 0 0 0 0 0 0 0 0 0
0 0 0 0 0 0 0 0 0 0 0 0 0 0 0 0 0 0 0 0 0 2 3 2 0 0 0 0 0 0 0 0 0 0 0 0 0 0 0 0 0 0 0
0 0 0 0 0 0 0 0 0 0 0 0 0 0 0 0 0 0 0 0 0 2 3 3 2 0 0 0 0 0 0 0 0 0 0 0 0 0 0 0 0 0 0
1 1 0 0 0 0 0 0 0 0 0 0 0 0 0 0 0 0 0 0 0 1 2 3 3 1 0 0 0 0 0 0 0 0 0 0 0 0 0 0 0 0 0
3 3 1 0 0 0 0 0 0 0 0 0 0 0 0 0 0 0 0 0 0 0 1 1 2 2 1 1 2 1 1 0 0 0 0 0 0 0 0 0 0 0 0
5 4 3 2 1 1 0 0 0 0 0 0 0 0 0 0 0 0 0 0 0 0 0 0 1 2 3 3 3 3 2 1 1 1 1 1 0 0 0 0 0 0 0
7 6 4 3 3 3 1 0 1 0 0 0 0 0 0 0 0 0 0 0 0 0 0 0 1 2 3 4 3 3 4 3 3 3 3 2 1 0 0 0 0 0 0
9 8 5 3 3 3 2 2 3 2 0 0 0 1 1 0 0 0 0 0 0 0 0 0 0 1 2 4 4 2 2 3 3 4 4 3 2 1 0 0 0 0 0
9 9 7 5 4 3 3 3 4 4 2 1 1 1 1 1 1 1 0 0 0 0 0 0 0 0 1 4 5 3 1 1 1 2 3 2 2 1 0 0 0 0 0
6 7 7 8 6 4 3 4 6 8 6 4 1 1 2 2 3 2 1 0 0 0 0 1 1 0 1 3 5 3 0 0 0 1 1 1 1 1 1 0 0 1 1
5 4 5 8 8 5 5 7 10 11 10 7 4 3 3 3 4 3 1 0 0 0 1 2 2 1 0 2 4 2 0 0 0 0 0 0 1 1 1 0 1 2 3
6 3 3 6 6 5 7 11 15 14 13 12 9 8 7 6 5 4 2 1 0 1 1 1 1 2 2 3 3 1 0 0 0 0 0 0 0 0 0 0 1 3 3
6 5 4 4 4 5 8 15 18 17 16 15 12 12 11 9 8 8 7 4 1 2 2 1 1 2 4 4 3 1 1 0 0 0 0 0 0 0 0 0 1 1 1
5 6 5 4 6 9 12 16 18 16 15 14 13 13 14 13 12 11 11 8 4 2 1 0 0 1 2 3 3 2 1 0 0 0 0 0 0 0 0 0 0 0 0
8 8 9 9 11 13 13 14 14 12 12 12 12 13 14 15 13 11 11 9 7 3 1 0 0 1 3 4 3 2 1 1 1 0 0 0 0 0 0 0 0 0 0
11 12 14 15 15 14 13 12 10 9 9 9 9 9 10 11 10 10 10 9 8 6 4 2 1 3 6 7 6 4 3 2 2 1 0 0 0 0 0 0 0 0 0
15 15 17 18 16 14 13 11 9 7 7 6 5 5 5 5 6 8 10 11 11 10 7 4 3 5 7 8 8 7 5 3 2 1 0 0 0 0 0 0 0 0 0
17 18 19 19 17 14 11 9 8 7 6 5 4 3 3 2 3 5 7 10 11 10 9 6 6 8 8 8 8 8 7 6 3 0 0 0 0 0 0 0 0 0 0
17 17 17 16 14 11 9 7 7 8 8 6 4 3 2 1 0 1 3 5 6 7 7 6 6 9 10 8 7 7 7 6 4 1 1 1 1 0 0 0 0 0 0
14 14 13 13 11 8 6 5 6 8 9 7 4 2 1 0 0 0 1 2 3 4 5 4 4 6 7 6 5 3 3 3 4 3 3 3 3 2 1 0 0 0 0
13 12 12 12 11 7 3 2 4 6 7 6 4 2 1 0 0 0 0 1 1 2 3 2 2 2 2 2 2 1 0 1 3 5 5 5 5 5 3 1 0 0 0
13 12 11 10 8 4 1 0 1 3 4 3 3 2 1 0 0 0 0 0 0 1 1 1 1 0 0 0 1 0 0 0 2 4 4 5 6 6 3 1 0 0 0
12 11 9 7 5 2 0 0 0 1 1 1 1 1 1 1 1 1 0 0 0 0 0 0 0 0 0 0 0 0 0 0 0 1 2 2 4 4 2 1 0 0 0
11 10 8 6 3 2 0 0 0 1 0 0 1 1 1 0 0 0 0 0 0 0 0 0 0 0 0 0 0 0 0 0 0 0 0 0 1 1 1 1 0 0 0
10 9 8 6 3 1 0 0 0 1 0 1 2 2 1 0 0 0 0 1 1 1 0 0 0 0 0 0 0 0 0 0 0 0 0 0 0 0 1 0 0 0 0

GEFSMA_con_prob3kmehi_192.txt.gz
EHI
6 8 9 9 7 6 6 5 5 4 3 4 4 2 1 1 2 3 6 8 8 6 6 5 4 3 3 3 3 2 1 0 0 1 1 0 0 0 0 0 0 0 0
8 9 10 9 8 7 7 5 4 4 4 4 3 3 2 2 3 4 6 8 9 9 8 7 6 4 4 3 4 3 1 1 1 2 2 1 1 1 0 0 0 0 0
10 9 9 9 9 10 9 7 4 4 4 4 4 3 3 4 5 5 8 11 12 11 11 11 10 8 5 4 4 3 3 2 2 3 3 3 2 2 1 1 1 1 1
10 8 9 11 13 12 10 7 5 4 4 5 6 6 5 6 8 8 10 15 17 16 15 16 16 14 10 7 6 4 3 3 3 3 3 3 3 3 3 2 2 2 2
10 10 12 16 17 14 11 9 7 5 5 6 7 8 7 9 11 12 12 15 19 22 21 20 21 19 15 14 12 9 7 6 5 4 3 3 3 3 3 3 3 3 3
12 13 16 20 18 15 14 11 9 7 7 7 6 6 7 10 14 15 15 15 17 21 23 26 26 22 19 18 18 16 13 11 8 5 4 3 3 3 2 1 2 2 2
17 18 19 20 18 17 15 12 9 8 8 7 4 3 5 8 12 16 18 18 16 16 20 27 29 26 21 17 16 16 16 14 11 9 6 5 4 3 2 1 1 1 1
23 21 22 22 20 19 17 15 14 11 7 6 5 3 3 5 7 11 15 16 16 16 18 22 27 29 26 20 14 12 15 16 15 12 10 7 6 4 3 2 0 0 0
26 24 24 24 22 20 19 20 19 15 9 6 7 7 4 3 3 5 8 10 13 16 14 13 20 26 28 26 21 15 15 18 18 15 13 10 8 6 4 2 1 1 0
28 26 26 27 23 20 21 23 23 19 12 7 7 9 7 3 2 2 3 4 6 8 7 5 10 19 24 28 28 22 17 15 15 14 12 11 9 7 4 3 2 2 1
30 27 29 31 27 24 24 25 24 19 12 7 6 8 8 6 4 2 1 1 2 2 2 2 5 10 15 21 23 19 14 9 7 7 7 8 8 7 5 4 4 3 2
32 31 33 37 35 30 28 26 23 18 13 9 6 7 8 8 6 2 0 0 1 1 3 4 4 5 8 10 11 9 7 4 1 1 2 3 6 7 6 6 5 4 2
34 35 38 43 41 34 31 28 23 20 18 15 10 8 8 6 5 4 2 0 0 1 3 4 3 3 4 5 4 2 2 1 0 0 0 1 2 4 5 5 5 2 1
30 36 42 44 41 35 30 28 25 22 22 18 11 8 6 4 6 7 4 1 0 0 1 1 2 3 6 6 3 1 1 0 0 0 0 0 0 1 2 3 2 1 0
29 35 40 39 36 33 29 28 25 24 23 18 11 9 7 6 7 8 6 3 2 0 0 1 2 5 7 6 3 2 3 2 0 0 0 0 0 0 0 1 1 0 0
36 38 38 35 32 29 28 27 25 24 23 18 12 11 9 7 6 7 7 5 3 1 0 2 4 6 6 4 3 4 6 4 1 0 0 0 0 0 0 0 0 0 0
40 39 36 32 29 26 25 25 23 21 20 16 12 10 9 7 6 7 7 6 3 1 0 1 3 5 6 6 4 5 6 5 2 0 0 0 0 0 0 0 0 0 0
37 34 30 27 25 23 22 22 20 16 14 13 10 8 8 8 8 8 7 5 3 1 1 1 2 3 5 6 5 4 4 3 1 0 0 0 0 0 0 0 0 0 0
34 31 26 23 22 20 20 20 18 14 12 12 11 9 9 9 10 10 8 6 4 2 2 3 3 3 3 3 2 2 1 1 0 0 0 0 0 0 0 0 0 0 0
31 29 25 22 19 17 17 18 17 15 15 14 13 11 9 8 9 8 7 6 5 4 4 4 4 3 2 1 0 0 0 0 0 0 0 0 0 0 0 0 0 0 0
24 24 22 19 16 13 12 14 16 17 18 16 13 9 6 4 4 4 4 4 4 4 4 4 3 3 2 1 0 0 0 0 0 0 0 0 0 0 0 0 0 0 0
18 18 18 16 13 9 7 8 11 15 18 16 11 6 3 1 1 1 1 1 1 2 2 3 4 3 2 0 0 0 0 0 0 0 0 0 0 0 0 0 0 0 0
19 18 17 15 11 6 3 3 5 12 15 12 8 4 2 1 1 1 0 0 0 0 1 2 3 3 2 1 0 0 0 0 0 0 0 0 0 0 0 0 0 0 0
20 19 17 14 10 5 2 0 3 8 10 8 4 3 1 1 1 1 0 0 0 0 0 1 1 1 1 1 0 0 0 0 0 0 0 0 0 0 0 0 0 0 0
19 18 17 14 10 6 2 1 4 7 7 4 2 1 1 0 1 1 0 0 0 0 0 0 0 0 0 0 0 0 0 0 0 0 0 0 0 0 0 0 0 0 0
18 18 17 15 12 7 3 1 4 7 5 3 2 2 1 0 0 0 0 0 0 0 0 0 0 0 0 0 0 0 0 0 0 0 0 0 0 0 0 0 0 0 0

GEFSMA_con_prob3kmehi_198.txt.gz
EHI
0 0 0 0 0 0 0 0 0 0 0 0 0 0 0 0 0 0 2 7 11 11 8 7 7 5 2 0 0 0 0 0 0 0 0 0 0 0 0 0 0 0 0
1 0 0 0 0 0 0 0 0 0 0 0 0 0 0 0 0 0 1 5 10 12 10 9 9 6 4 1 0 0 0 0 0 0 0 0 0 0 0 0 0 0 0
2 1 0 0 0 0 0 0 0 0 0 0 0 0 0 0 0 0 0 2 6 10 12 12 11 9 7 5 3 2 1 1 0 0 0 0 0 0 0 0 0 0 0
5 3 1 0 0 0 0 0 0 0 0 0 0 0 0 0 0 0 0 0 2 5 9 12 13 12 11 9 8 7 5 3 1 0 0 0 0 0 0 0 0 0 0
7 4 2 1 1 0 0 0 0 0 0 0 0 0 0 0 0 0 0 0 0 1 4 8 11 13 13 13 13 12 11 8 4 2 1 0 0 0 0 0 0 0 0
8 6 4 4 3 2 0 0 0 0 0 0 0 0 0 0 0 0 0 0 0 0 1 2 5 9 12 13 14 15 15 13 10 6 4 2 1 0 0 0 0 0 0
9 8 6 5 5 4 1 0 1 1 0 0 0 0 0 0 0 0 0 0 0 0 0 0 1 3 6 9 11 14 17 17 15 12 8 5 2 0 0 0 0 0 0
10 10 8 6 5 4 3 2 1 1 0 0 0 0 0 0 0 0 0 0 0 0 0 0 0 0 1 3 5 9 13 15 16 14 11 7 3 1 1 1 0 0 0
12 11 10 8 5 4 4 3 2 1 0 0 0 0 0 0 0 0 0 0 0 0 0 0 1 1 1 1 2 4 6 10 12 12 11 8 5 3 2 1 0 0 0
10 11 11 10 7 5 4 3 1 0 0 0 0 0 0 0 0 0 0 0 0 0 0 0 0 1 1 2 2 1 2 4 5 6 8 10 9 6 3 1 0 0 0
7 9 10 8 6 5 4 2 1 0 0 0 0 0 0 0 0 0 0 0 0 0 0 0 0 0 1 2 2 2 1 0 1 2 4 8 9 7 4 2 1 0 0
7 9 8 6 5 4 3 3 2 1 0 0 0 0 0 0 0 0 0 0 0 0 0 0 0 0 0 1 1 1 1 0 0 0 1 3 5 5 4 5 4 2 1
8 8 7 5 3 3 3 3 3 2 1 0 0 0 0 0 0 0 0 0 0 0 0 0 0 0 0 0 0 0 0 0 0 0 0 1 1 1 2 4 5 3 2
7 7 6 5 4 4 4 4 3 2 1 1 0 0 0 0 0 0 0 0 0 0 0 0 0 0 0 0 0 0 0 0 0 0 0 0 0 0 0 1 2 2 2
5 6 5 4 4 4 4 4 3 3 3 3 2 0 0 0 0 0 0 0 0 0 0 0 0 0 0 0 0 0 0 0 0 0 0 0 0 0 0 0 0 1 1
4 5 4 2 2 3 4 4 4 4 5 5 3 2 1 0 0 0 0 0 0 0 0 0 0 0 0 0 0 0 0 0 0 0 0 0 0 0 0 0 0 0 0
4 4 2 1 2 3 4 4 4 5 4 4 4 3 2 1 0 0 0 0 0 0 0 0 0 0 0 0 0 0 0 0 0 0 0 0 0 0 0 0 0 0 0
5 4 3 3 4 4 5 4 4 4 3 3 3 3 3 2 1 0 0 0 0 0 0 0 0 0 0 0 0 0 0 0 0 0 0 0 0 0 0 0 0 0 0
5 4 4 5 5 5 5 4 3 3 3 3 3 3 3 3 1 1 0 0 0 0 0 0 0 0 0 0 0 0 0 0 0 0 0 0 0 0 0 0 0 0 0
5 4 3 4 5 5 4 3 3 3 3 3 3 3 3 3 3 2 1 0 0 0 0 0 0 0 0 0 0 0 0 0 0 0 0 0 0 0 0 0 0 0 0
5 4 3 3 4 4 4 3 3 3 3 3 3 3 3 3 3 2 1 0 0 0 0 0 0 0 0 0 0 0 0 0 0 0 0 0 0 0 0 0 0 0 0
4 4 5 5 5 5 4 3 2 2 2 2 3 3 3 2 2 1 0 0 0 0 0 0 0 0 0 0 0 0 0 0 0 0 0 0 0 0 0 0 0 0 0
5 6 6 6 6 6 4 2 1 1 1 1 1 2 2 1 1 0 0 0 0 0 0 0 0 0 0 0 0 0 0 0 0 0 0 0 0 0 0 0 0 0 0
7 7 6 6 6 6 4 1 0 0 0 0 1 2 2 1 1 0 0 0 0 0 0 0 0 0 0 0 0 0 0 0 0 0 0 0 0 0 0 0 0 0 0
7 7 6 6 6 5 3 1 0 1 1 1 1 2 2 2 1 0 0 0 0 0 0 0 0 0 0 0 0 0 0 0 0 0 0 0 0 0 0 0 0 0 0
8 7 6 5 4 4 2 0 1 2 2 2 2 2 2 1 1 0 0 0 0 0 0 0 0 0 0 0 0 0 0 0 0 0 0 0 0 0 0 0 0 0 0

GEFSMA_con_prob3kmehi_204.txt.gz
EHI
0 0 0 0 0 0 0 0 0 0 0 0 0 0 0 0 0 0 0 1 4 6 5 3 3 3 2 1 0 0 0 0 0 0 0 0 0 0 0 0 0 0 0
0 0 0 0 0 0 0 0 0 0 0 0 0 0 0 0 0 0 0 1 3 4 5 4 3 2 1 0 0 0 0 0 0 0 0 0 0 0 0 0 0 0 0
0 0 0 0 0 0 0 0 0 0 0 0 0 0 0 0 0 0 0 0 1 2 4 5 4 3 1 1 1 1 1 1 0 0 0 0 0 0 0 0 0 0 0
0 0 0 0 0 0 0 0 0 0 0 0 0 0 0 0 0 0 0 0 0 0 2 3 4 3 3 3 3 3 2 2 1 0 0 0 0 0 0 0 0 0 0
0 0 0 0 0 0 0 0 0 0 0 0 0 0 0 0 0 0 0 0 0 0 0 1 2 3 5 6 5 3 3 3 2 0 0 1 1 1 0 0 0 0 0
0 0 1 0 0 0 0 0 0 0 0 0 0 0 0 0 0 0 0 0 0 0 0 0 1 2 4 5 4 3 3 4 2 1 1 2 2 2 1 1 0 0 0
1 0 0 0 0 0 0 0 1 1 1 0 0 0 0 0 0 0 0 0 0 0 0 0 0 0 1 2 2 2 3 4 4 4 4 4 4 3 2 2 1 0 0
2 1 1 0 0 0 0 1 2 2 1 0 0 0 0 0 0 0 0 0 0 0 0 0 0 0 0 0 0 1 2 3 4 6 7 6 5 4 3 3 1 0 0
2 2 2 1 0 0 1 1 2 2 1 0 0 0 0 0 0 0 0 0 0 0 0 0 0 0 0 0 0 0 1 2 3 5 6 6 5 5 4 3 1 0 0
1 1 2 1 0 0 0 0 1 1 0 0 0 0 0 0 0 0 0 0 0 0 0 0 0 0 0 0 0 0 0 0 1 2 4 5 5 5 4 4 3 1 0
0 1 2 2 1 0 0 0 0 0 0 0 0 0 0 0 0 0 0 0 0 0 0 0 0 0 0 0 0 0 0 0 0 0 1 2 4 4 4 4 4 2 1
1 1 2 3 2 0 0 0 0 0 0 0 0 0 0 0 0 0 0 0 0 0 0 0 0 0 0 0 0 0 0 0 0 0 0 0 2 3 3 4 3 1 0
1 1 2 2 1 0 0 0 0 0 0 0 0 0 0 0 0 0 0 0 0 0 0 0 0 0 0 0 0 0 0 0 0 0 0 0 0 1 1 2 2 1 0
1 1 1 1 1 0 0 0 0 0 0 0 0 0 0 0 0 0 0 0 0 0 0 0 0 0 0 0 0 0 0 0 0 0 0 0 0 0 0 1 1 0 0
1 0 0 0 0 0 0 0 0 0 0 0 0 0 0 0 0 0 0 0 0 0 0 0 0 0 0 0 0 0 0 0 0 0 0 0 0 0 0 0 0 0 0
1 1 0 0 0 1 1 1 0 0 0 0 0 0 0 0 0 0 0 0 0 0 0 0 0 0 0 0 0 0 0 0 0 0 0 0 0 0 0 0 0 0 0
4 3 1 0 1 2 2 2 1 0 1 0 0 1 1 1 0 0 0 0 0 0 0 0 0 0 0 0 0 0 0 0 0 0 0 0 0 0 0 0 0 0 0
5 5 2 1 1 2 3 2 1 0 0 0 1 2 2 2 1 1 0 0 0 0 0 0 0 0 0 0 0 0 0 0 0 0 0 0 0 0 0 0 0 0 0
5 4 3 2 2 2 2 1 0 0 0 0 1 2 3 3 3 2 1 0 0 0 0 0 0 0 0 0 0 0 0 0 0 0 0 0 0 0 0 0 0 0 0
7 5 4 3 2 1 1 0 0 0 1 1 1 3 3 3 3 3 1 1 1 0 0 0 0 0 0 0 0 0 0 0 0 0 0 0 0 0 0 0 0 0 0
9 7 5 3 2 1 1 0 0 1 2 2 3 3 3 3 3 2 2 2 2 1 0 0 0 0 0 0 0 0 0 0 0 0 0 0 0 0 0 0 0 0 0
8 7 5 3 2 2 1 0 0 2 3 3 3 3 3 3 2 1 1 1 2 1 1 0 0 0 0 0 0 0 0 0 0 0 0 0 0 0 0 0 0 0 0
7 6 4 3 3 3 2 0 0 1 2 2 2 2 2 1 1 0 0 0 1 1 1 1 0 0 0 0 0 0 0 0 0 0 0 0 0 0 0 0 0 0 0
6 5 4 3 3 2 1 0 0 0 1 1 1 1 1 0 0 0 1 0 0 0 0 0 0 0 0 0 0 0 0 0 0 0 0 0 0 0 0 0 0 0 0
5 4 3 2 2 1 1 0 0 0 0 0 0 0 0 0 0 0 0 0 0 0 0 0 0 0 0 0 0 0 0 0 0 0 0 0 0 0 0 0 0 0 0
4 3 2 1 1 0 0 0 0 0 0 0 0 0 0 0 0 0 0 0 1 1 1 0 0 0 0 0 0 0 0 0 0 0 0 0 0 0 0 0 0 0 0

GEFSMA_con_prob3kmehi_210.txt.gz
EHI
0 0 0 0 0 0 0 0 0 0 0 0 0 0 0 0 0 0 1 2 2 1 0 0 0 0 0 0 1 1 0 0 0 0 0 0 0 0 0 0 0 0 0
0 0 0 0 0 0 0 0 0 0 0 0 0 0 0 0 0 0 0 1 2 2 1 0 0 0 1 1 2 1 1 0 0 0 0 0 0 0 0 0 0 0 0
1 1 1 0 0 0 0 0 0 0 0 0 0 0 0 0 0 0 0 0 2 2 2 0 0 0 1 2 2 1 1 1 1 0 0 0 0 0 0 0 0 0 0
1 2 1 1 1 0 0 0 0 0 0 0 0 0 0 0 0 0 0 0 1 1 1 0 1 1 1 1 1 0 1 2 2 1 1 0 0 0 0 0 0 0 0
1 1 1 0 0 0 0 0 1 1 1 1 1 0 0 0 0 0 0 0 0 0 0 0 1 2 1 0 0 1 1 2 3 2 2 1 0 0 0 0 0 0 0
1 0 0 0 0 0 0 1 2 2 2 2 2 1 0 0 0 0 0 0 0 0 0 0 1 2 2 1 1 2 2 2 2 2 2 1 0 0 0 0 0 0 0
1 0 0 0 0 1 1 2 2 2 2 3 2 1 0 0 0 0 0 0 0 0 0 1 1 2 3 2 1 1 1 1 1 1 1 1 1 1 2 1 1 0 0
1 2 2 1 1 2 2 1 2 1 1 2 3 1 0 0 0 0 0 0 0 0 1 1 2 2 2 1 0 0 0 0 0 1 0 1 2 2 2 2 2 1 0
5 5 5 3 2 3 3 2 1 2 2 3 4 3 1 2 2 1 1 0 0 1 2 1 1 1 0 1 1 0 0 0 0 0 0 1 1 1 1 2 2 2 1
9 8 6 6 5 5 5 3 2 3 4 5 5 4 3 3 3 3 2 1 1 2 2 1 0 0 1 1 1 0 0 0 0 0 0 0 0 0 0 1 1 2 3
14 11 8 8 7 5 4 3 3 5 7 6 4 3 2 3 3 3 2 2 2 1 1 1 1 1 1 1 1 0 0 0 0 0 0 0 0 0 1 1 1 3 3
19 15 11 9 8 6 5 5 4 5 6 5 4 3 2 2 3 4 2 1 1 1 1 1 1 1 1 1 0 0 0 0 0 0 0 0 0 0 1 2 2 2 2
19 17 13 11 10 9 9 8 6 5 6 5 4 3 2 2 3 3 2 0 0 1 1 1 1 1 0 0 0 0 0 0 0 0 0 0 0 0 1 1 1 1 1
15 14 15 13 12 12 11 10 7 6 7 6 4 3 2 2 2 2 2 1 0 0 0 0 0 0 0 0 0 0 0 0 0 0 0 0 0 0 0 0 0 0 0
13 14 15 15 15 14 13 11 9 9 9 8 5 4 4 3 3 3 3 4 3 1 0 0 0 0 0 0 0 0 0 0 0 0 0 0 0 0 0 0 0 0 0
17 16 17 17 17 15 14 12 10 11 12 11 6 4 5 5 5 6 6 7 7 5 2 0 0 1 1 1 0 0 0 0 0 0 0 0 0 0 0 0 0 0 0
20 19 19 19 17 13 11 10 8 9 11 10 6 4 4 5 7 9 9 8 8 7 4 2 0 1 1 1 0 1 0 0 0 0 0 0 0 0 0 0 0 0 0
22 20 19 20 17 12 9 8 6 6 7 7 6 5 4 5 8 11 10 8 7 6 5 3 1 0 0 0 0 0 0 0 0 0 0 0 0 0 0 0 0 0 0
23 20 19 19 16 11 8 8 8 7 7 6 6 6 5 6 9 10 10 9 7 6 5 3 1 0 0 0 0 0 0 0 0 0 0 0 0 0 0 0 0 0 0
23 22 19 17 14 11 9 10 10 10 8 8 9 9 7 6 7 9 9 9 8 6 5 3 1 0 0 0 0 0 0 0 0 0 0 0 0 0 0 0 0 0 0
23 22 20 18 14 12 10 10 10 9 9 9 11 11 9 6 5 7 7 7 6 4 3 3 2 0 0 0 0 0 0 0 0 0 0 0 0 0 0 0 0 0 0
21 20 19 19 16 12 8 7 7 7 8 9 11 11 8 5 4 4 4 4 3 2 2 2 1 0 0 0 0 0 0 0 0 1 1 0 0 0 0 0 0 0 0
20 18 18 18 15 10 6 3 3 5 7 8 7 7 6 3 2 2 1 1 1 1 0 0 0 0 0 0 0 0 0 0 1 2 2 1 0 0 0 0 0 0 0
18 17 17 16 13 8 4 1 2 4 6 5 4 4 4 3 1 0 0 0 0 0 0 0 0 0 0 0 0 1 1 1 1 3 3 2 1 0 0 0 0 0 0
17 16 15 14 12 8 3 1 2 5 5 4 3 3 3 2 1 0 0 0 0 0 0 0 0 0 0 0 0 1 2 1 2 3 3 2 1 0 0 0 0 0 0
16 16 14 13 11 7 4 1 1 4 5 4 3 3 2 1 0 0 0 0 0 0 0 0 0 0 0 0 0 1 2 2 2 3 3 2 1 0 0 0 0 0 0

GEFSMA_con_prob3kmehi_216.txt.gz
EHI
8 7 9 10 6 3 2 4 6 6 6 6 5 4 4 4 2 3 10 17 17 13 10 8 6 4 2 1 0 0 0 0 0 0 0 0 0 0 0 0 0 0 0
7 7 9 9 7 4 4 6 6 5 5 6 6 5 5 5 3 4 9 14 15 14 12 10 8 6 4 2 2 1 0 0 0 0 0 0 0 0 0 0 0 0 0
7 7 7 8 7 6 6 7 6 4 5 6 6 4 5 6 5 4 8 11 13 13 14 13 11 9 7 6 6 5 2 1 0 0 0 0 0 0 0 0 0 0 0
7 7 7 7 6 7 6 5 4 4 6 7 5 4 4 6 5 4 5 10 14 14 14 15 15 14 12 10 9 9 7 4 1 0 0 0 0 0 0 0 0 0 0
7 8 9 9 8 7 5 3 3 6 7 7 5 3 4 7 7 4 3 8 16 19 16 16 17 17 15 13 11 11 11 8 4 1 0 0 0 0 0 0 0 0 0
8 10 12 13 12 8 5 4 4 7 8 6 4 2 5 10 10 6 4 6 12 17 18 19 17 14 12 11 9 9 9 7 5 3 1 0 0 0 0 0 0 0 0
15 16 17 18 16 11 8 6 8 9 6 4 3 2 5 10 10 7 6 6 6 9 14 20 18 13 9 6 5 5 5 5 5 5 2 1 0 0 0 0 0 0 0
24 23 22 21 18 14 11 10 12 11 5 3 4 3 4 5 5 4 5 5 4 5 10 15 18 17 13 7 3 2 2 3 4 4 2 1 0 0 1 1 0 0 0
30 28 26 23 20 15 11 12 13 12 7 5 4 3 2 2 1 1 2 3 5 6 7 9 13 17 17 12 6 3 1 1 2 2 3 2 1 0 1 1 0 0 0
32 32 31 30 25 18 13 12 12 13 10 7 4 3 2 2 1 0 1 2 4 6 6 6 9 12 14 13 10 6 3 1 1 2 3 3 2 1 1 1 0 0 0
33 35 38 37 31 24 18 14 13 13 12 8 6 5 4 4 2 1 1 1 3 6 6 5 6 7 9 10 8 7 5 1 0 1 2 3 3 2 0 0 0 0 0
36 36 39 41 35 29 24 19 14 14 12 9 6 5 5 5 3 1 1 1 3 6 7 5 3 4 5 6 4 4 3 1 0 0 1 1 1 1 0 0 0 0 0
37 37 40 42 38 31 26 21 18 17 15 11 7 6 6 5 3 1 1 1 2 4 4 3 1 1 3 4 2 1 1 0 0 0 0 0 0 0 0 0 0 0 0
36 40 44 44 39 31 25 22 22 22 19 14 10 8 7 4 2 1 2 2 1 2 2 1 1 1 2 3 2 1 0 0 0 0 0 0 0 0 0 0 0 0 0
35 40 43 41 37 31 27 25 24 23 20 16 12 9 6 3 1 2 4 5 4 2 2 1 1 2 2 2 1 0 0 0 0 0 0 0 0 0 0 0 0 0 0
35 37 37 36 33 30 29 28 25 22 20 17 12 8 6 4 2 2 5 8 7 5 2 1 2 3 3 1 0 0 0 0 0 0 0 0 0 0 0 0 0 0 0
37 35 35 35 33 29 27 28 25 22 21 18 13 9 8 7 5 3 4 7 8 6 2 0 1 3 3 1 0 0 0 0 0 0 0 0 0 0 0 0 0 0 0
37 35 34 35 34 30 28 27 24 21 21 20 16 14 13 10 8 6 5 7 8 6 2 1 1 2 2 1 0 0 0 0 0 0 0 0 0 0 0 0 0 0 0
35 33 32 32 30 29 28 26 23 19 18 18 17 16 15 12 10 9 10 10 10 7 4 2 1 1 1 1 1 0 0 0 0 0 0 0 0 0 0 0 0 0 0
32 31 29 27 25 23 23 23 21 18 15 14 15 14 12 11 10 10 12 13 12 9 6 3 1 0 0 0 0 0 0 0 0 0 0 0 0 0 0 0 0 0 0
30 28 26 25 23 20 19 19 19 17 14 12 12 12 10 8 7 8 9 11 11 10 7 4 1 0 0 0 0 0 0 0 0 0 0 0 0 0 0 0 0 0 0
26 25 23 22 21 18 15 14 16 15 13 11 11 10 8 6 5 4 5 6 7 7 6 3 1 0 0 0 0 0 0 0 0 0 0 0 0 0 0 0 0 0 0
22 22 20 19 18 15 12 10 11 12 11 9 9 9 8 6 4 1 1 1 2 2 2 2 1 0 0 0 0 0 0 0 0 0 0 0 1 1 0 0 0 0 0
19 19 17 16 15 13 10 8 8 9 8 8 8 8 8 6 3 1 0 0 0 0 0 0 0 0 0 0 0 0 0 0 0 0 1 1 1 1 1 0 0 0 0
18 17 15 14 13 11 8 6 7 7 7 7 8 7 6 5 2 1 0 0 0 0 0 0 0 0 0 0 0 0 0 0 0 1 2 2 2 1 1 0 0 0 0
17 16 14 13 13 11 7 4 5 6 7 8 8 6 4 3 1 0 0 0 0 0 0 0 0 0 0 0 0 0 0 0 0 1 2 3 3 2 1 0 0 0 0

GEFSMA_con_prob3kmehi_222.txt.gz
EHI
3 2 1 0 0 1 2 2 1 0 0 0 0 0 0 0 0 0 2 6 10 11 11 11 9 8 7 6 4 2 0 0 0 0 0 0 0 0 0 0 0 0 0
2 2 1 0 0 0 1 1 0 0 0 0 0 0 0 0 0 0 1 4 8 10 10 10 9 7 6 5 4 2 0 0 0 0 0 0 0 0 0 0 0 0 0
2 1 0 0 0 0 0 0 0 0 0 0 0 0 0 0 0 0 0 1 4 6 7 7 7 5 4 4 3 1 0 0 0 0 0 0 0 0 0 0 0 0 0
3 1 0 0 0 0 0 0 0 0 0 0 0 0 0 0 0 0 0 0 1 1 2 5 6 5 4 2 1 0 0 0 0 0 0 0 0 0 0 0 0 0 0
4 2 1 1 1 0 0 0 0 0 0 0 0 0 0 0 0 0 0 0 0 0 0 2 5 6 4 2 1 1 0 0 0 0 0 0 0 0 0 0 0 0 0
4 2 1 1 1 0 0 0 0 0 0 0 0 0 0 0 0 0 0 0 0 0 0 1 2 3 4 3 2 2 1 1 1 0 0 0 0 0 0 0 0 0 0
4 3 2 1 0 0 0 0 0 0 0 0 0 0 0 0 0 0 0 0 0 0 0 0 0 1 1 2 2 2 3 3 3 2 1 0 0 0 0 0 0 0 0
4 4 3 2 1 1 1 0 0 0 0 0 0 0 0 0 0 0 0 0 0 0 0 0 1 0 0 1 1 1 3 5 5 4 3 2 1 0 0 0 0 0 0
4 4 3 3 3 2 2 1 0 0 0 0 0 0 0 0 0 0 0 0 0 0 0 0 0 0 0 0 0 0 2 4 5 5 4 3 2 1 0 0 0 0 0
4 4 4 4 3 3 3 2 1 0 0 0 0 0 0 0 0 0 0 0 0 0 0 0 0 0 0 0 0 0 0 2 3 4 5 5 4 2 1 0 0 0 0
4 5 5 5 4 3 3 3 2 1 0 0 0 0 0 0 0 0 0 0 0 0 0 0 0 0 0 0 0 0 0 0 1 2 4 5 3 2 1 0 0 0 0
4 5 6 5 4 3 3 3 3 1 1 0 0 0 0 0 0 0 0 0 0 0 0 0 0 0 0 0 0 0 0 0 0 0 1 2 1 1 1 0 0 0 0
5 4 5 5 4 4 4 4 4 3 2 1 0 0 0 0 0 0 0 0 0 0 0 0 0 0 0 0 0 0 0 0 0 0 0 0 0 0 0 0 0 0 0
7 6 4 5 5 5 5 5 5 5 4 2 1 0 0 0 0 0 0 0 0 0 0 0 0 0 0 0 0 0 0 0 0 0 0 0 0 0 0 0 0 0 0
9 8 6 6 6 6 7 7 7 7 5 3 1 0 0 0 0 0 0 0 0 0 0 0 0 0 0 0 0 0 0 0 0 0 0 0 0 0 0 0 0 0 0
11 10 9 8 7 7 9 10 9 7 5 2 0 0 0 0 0 0 0 0 0 0 0 0 0 0 0 0 0 0 0 0 0 0 0 0 0 0 0 0 0 0 0
9 10 10 10 10 10 11 12 10 7 4 1 0 0 0 0 0 0 0 0 0 1 1 1 0 0 0 0 0 0 0 0 0 0 0 0 0 0 0 0 0 0 0
8 9 11 11 11 13 14 14 11 8 5 2 0 0 0 0 0 0 0 0 0 1 2 2 1 0 0 0 0 0 0 0 0 0 0 0 0 0 0 0 0 0 0
9 10 11 12 12 13 14 15 14 10 6 2 0 0 0 0 0 0 0 1 1 2 3 3 2 1 0 0 0 0 0 0 0 0 0 0 0 0 0 0 0 0 0
10 10 11 12 12 12 13 16 15 11 7 3 1 1 1 1 1 1 1 2 3 3 3 3 3 2 1 0 0 0 0 0 0 0 0 0 0 0 0 0 0 0 0
10 9 10 12 12 12 12 14 14 11 7 4 3 2 2 3 3 2 2 3 3 3 3 3 3 2 1 0 0 0 0 0 0 0 0 0 0 0 0 0 0 0 0
10 10 10 12 13 12 12 12 11 10 8 6 4 3 3 3 3 3 3 3 3 3 3 2 2 1 0 0 0 0 0 0 0 0 0 0 0 0 0 0 0 0 0
12 12 12 13 13 12 11 9 9 8 8 7 5 4 3 2 2 3 3 3 2 2 1 1 1 0 0 0 0 0 0 0 0 0 0 0 0 0 0 0 0 0 0
13 13 13 13 13 11 9 8 7 7 7 7 6 5 5 3 3 2 2 1 1 1 0 0 0 0 0 0 0 0 0 0 0 0 0 0 0 0 0 0 0 0 0
12 12 12 12 11 10 8 6 5 6 7 6 5 5 6 5 3 1 1 0 0 0 0 0 0 0 0 0 0 0 0 1 0 0 0 0 0 0 0 0 0 0 0
11 11 10 10 10 10 7 5 5 7 6 5 4 4 5 5 2 0 0 0 0 0 0 0 0 0 0 0 0 0 0 1 0 0 0 0 0 0 0 0 0 0 0

GEFSMA_con_prob3kmehi_228.txt.gz
EHI
0 0 0 0 0 0 0 0 0 0 0 0 0 0 0 0 0 1 1 2 5 8 8 6 5 4 2 0 0 0 0 0 0 0 0 0 0 0 0 0 0 0 0
0 0 0 0 0 0 0 0 0 0 0 0 0 0 0 0 1 2 2 2 2 4 5 5 4 4 2 1 0 0 0 0 0 0 0 0 0 0 0 0 0 0 0
1 0 0 0 0 0 0 0 0 0 0 0 0 0 0 1 2 2 1 1 0 1 2 3 3 3 3 1 1 0 0 0 0 0 0 0 0 0 0 0 0 0 0
2 1 0 0 0 0 0 0 0 0 0 0 0 0 0 1 1 1 0 0 0 0 1 1 1 2 3 3 2 1 1 0 0 0 0 0 0 0 0 0 0 0 0
2 1 0 0 0 0 0 0 0 0 0 0 0 0 0 0 0 0 0 0 0 0 0 0 0 1 2 3 3 3 2 1 1 1 0 0 0 0 0 0 0 0 0
2 1 0 0 0 0 0 0 0 0 0 0 0 0 0 0 0 0 0 0 0 0 0 0 0 1 1 2 3 4 4 4 4 3 2 1 0 0 0 0 0 0 0
2 1 1 0 0 0 0 0 0 0 0 0 0 0 0 0 0 0 0 0 0 0 0 0 0 0 0 1 1 2 3 4 5 5 4 3 2 1 0 0 0 0 0
1 2 2 1 1 0 0 0 0 0 0 0 0 0 0 0 0 0 0 0 0 0 0 0 0 0 0 0 0 1 1 1 2 4 5 5 4 2 1 1 1 0 0
2 3 3 3 2 1 0 0 0 0 0 0 0 0 0 0 0 0 0 0 0 0 0 0 0 0 0 0 0 0 0 0 0 2 3 3 3 2 2 2 2 1 0
2 2 3 3 3 2 1 1 1 0 0 0 0 0 0 0 0 0 0 0 0 0 0 0 0 0 0 0 0 0 0 0 0 0 1 1 1 1 2 3 3 2 1
2 3 4 3 3 3 3 2 2 1 0 0 0 0 0 0 0 0 0 0 0 0 0 0 0 0 0 0 0 0 0 0 0 0 0 0 0 0 1 1 1 1 0
3 5 5 4 3 3 3 3 3 2 1 0 0 0 0 0 0 0 0 0 0 0 0 0 0 0 0 0 0 0 0 0 0 0 0 0 0 0 0 0 0 0 0
4 4 4 3 3 3 3 3 3 2 1 0 0 0 0 0 0 0 0 0 0 0 0 0 0 0 0 0 0 0 0 0 0 0 0 0 0 0 0 0 0 0 0
3 3 3 3 3 3 3 3 3 3 1 0 0 0 0 0 0 0 0 0 0 0 0 0 0 0 0 0 0 0 0 0 0 0 0 0 0 0 0 0 0 0 0
2 3 3 3 3 3 3 3 3 3 2 1 0 0 0 0 0 0 0 0 0 0 0 0 0 0 0 0 0 0 0 0 0 0 0 0 0 0 0 0 0 0 0
1 1 3 3 3 3 4 4 4 2 2 1 0 0 0 0 0 0 0 0 0 0 0 0 0 0 0 0 0 0 0 0 0 0 0 0 0 0 0 0 0 0 0
1 1 3 3 3 3 4 6 5 3 2 1 0 0 0 0 0 1 1 0 0 1 2 1 0 0 0 0 0 0 0 0 0 0 0 0 0 0 0 0 0 0 0
2 3 3 3 3 4 5 5 5 4 3 2 1 0 0 1 1 2 2 1 0 2 3 2 1 1 0 0 0 0 0 0 0 0 0 0 0 0 0 0 0 0 0
3 3 3 3 3 3 4 4 4 4 3 3 2 0 1 2 3 3 2 1 0 1 2 3 2 1 1 0 0 0 0 0 0 0 0 0 0 0 0 0 0 0 0
3 3 3 3 3 3 3 3 3 3 3 2 1 0 1 2 3 4 3 1 1 1 2 2 1 1 1 1 1 0 0 0 0 0 0 0 0 0 0 0 0 0 0
5 4 3 3 3 3 3 3 4 4 4 3 2 2 2 3 3 3 3 2 2 2 3 2 1 0 1 2 1 0 0 0 0 0 0 0 0 0 0 0 0 0 0
9 7 5 5 5 4 3 4 5 5 5 5 5 5 5 4 4 3 2 1 2 2 2 2 2 1 1 2 1 0 0 0 0 0 0 0 0 0 0 0 0 0 0
11 11 10 9 8 6 4 3 3 5 6 6 6 6 6 5 5 4 2 1 1 1 1 1 2 3 3 2 1 0 0 0 0 1 1 0 0 0 0 0 0 0 0
12 13 13 13 12 8 4 1 1 3 5 6 6 6 6 6 6 5 4 3 2 0 0 1 2 2 2 2 1 0 0 0 1 2 2 1 0 0 0 0 0 0 0
11 11 12 12 11 8 3 1 1 2 3 4 5 6 6 6 5 4 4 4 2 0 0 0 1 1 1 1 1 1 1 1 1 3 3 2 0 0 0 0 0 0 0
7 8 8 8 9 7 2 0 1 2 2 3 5 5 5 5 4 2 3 4 3 1 0 0 0 0 0 0 0 1 2 2 2 3 3 1 0 0 0 0 0 0 0